TimeCDT,TemperatureF,Dew PointF,Humidity,Sea Level PressureIn,VisibilityMPH,Wind Direction,Wind SpeedMPH,Gust SpeedMPH,PrecipitationIn,Events,Conditions,WindDirDegrees,DateUTC
12:15 AM,50.0,32.0,50,29.89,10.0,SSW,9.2,-,N/A,,Partly Cloudy,200,2012-10-02 05:15:00
12:35 AM,50.0,32.0,50,29.88,10.0,South,10.4,-,N/A,,Clear,190,2012-10-02 05:35:00
12:55 AM,46.4,32.0,57,29.87,10.0,South,10.4,-,N/A,,Clear,190,2012-10-02 05:55:00
1:35 AM,44.6,32.0,61,29.85,10.0,South,9.2,-,N/A,,Clear,180,2012-10-02 06:35:00
1:55 AM,46.4,32.0,57,29.85,10.0,South,10.4,-,N/A,,Clear,180,2012-10-02 06:55:00
2:15 AM,46.4,30.2,53,29.83,10.0,South,12.7,-,N/A,,Clear,180,2012-10-02 07:15:00
2:35 AM,48.2,32.0,54,29.82,10.0,South,12.7,-,N/A,,Clear,180,2012-10-02 07:35:00
2:55 AM,48.2,32.0,54,29.81,10.0,South,15.0,20.7,N/A,,Clear,190,2012-10-02 07:55:00
3:15 AM,48.2,32.0,54,29.80,10.0,South,13.8,-,N/A,,Clear,180,2012-10-02 08:15:00
3:35 AM,48.2,32.0,54,29.79,10.0,South,13.8,-,N/A,,Clear,190,2012-10-02 08:35:00
3:55 AM,48.2,32.0,54,29.78,10.0,South,16.1,-,N/A,,Clear,180,2012-10-02 08:55:00
4:15 AM,48.2,32.0,54,29.77,10.0,South,16.1,-,N/A,,Clear,180,2012-10-02 09:15:00
4:35 AM,48.2,32.0,54,29.76,10.0,South,13.8,-,N/A,,Clear,180,2012-10-02 09:35:00
4:55 AM,48.2,32.0,54,29.74,10.0,South,13.8,-,N/A,,Clear,180,2012-10-02 09:55:00
5:15 AM,50.0,32.0,50,29.72,10.0,South,16.1,21.9,N/A,,Clear,180,2012-10-02 10:15:00
5:35 AM,50.0,32.0,50,29.71,10.0,South,18.4,24.2,N/A,,Clear,190,2012-10-02 10:35:00
5:55 AM,48.2,32.0,54,29.69,10.0,South,18.4,-,N/A,,Clear,190,2012-10-02 10:55:00
6:15 AM,48.2,32.0,54,29.69,10.0,South,18.4,23.0,N/A,,Clear,190,2012-10-02 11:15:00
6:35 AM,48.2,32.0,54,29.69,10.0,South,19.6,25.3,N/A,,Clear,190,2012-10-02 11:35:00
6:55 AM,48.2,32.0,54,29.67,10.0,South,18.4,24.2,N/A,,Clear,180,2012-10-02 11:55:00
7:15 AM,48.2,32.0,54,29.66,10.0,South,19.6,26.5,N/A,,Clear,180,2012-10-02 12:15:00
7:35 AM,48.2,32.0,54,29.65,10.0,South,19.6,-,N/A,,Clear,180,2012-10-02 12:35:00
7:55 AM,48.2,32.0,54,29.63,10.0,South,19.6,26.5,N/A,,Clear,180,2012-10-02 12:55:00
8:15 AM,50.0,32.0,50,29.62,10.0,South,20.7,27.6,N/A,,Clear,180,2012-10-02 13:15:00
8:35 AM,51.8,32.0,47,29.61,10.0,South,23.0,33.4,N/A,,Clear,190,2012-10-02 13:35:00
8:55 AM,53.6,32.0,44,29.60,10.0,SSW,18.4,27.6,N/A,,Clear,200,2012-10-02 13:55:00
9:15 AM,55.4,32.0,41,29.61,10.0,SSW,21.9,28.8,N/A,,Clear,210,2012-10-02 14:15:00
9:35 AM,59.0,32.0,36,29.60,10.0,SSW,24.2,36.8,N/A,,Clear,200,2012-10-02 14:35:00
9:55 AM,59.0,32.0,36,29.60,10.0,SSW,25.3,34.5,N/A,,Clear,210,2012-10-02 14:55:00
10:15 AM,60.8,32.0,34,29.59,10.0,SSW,25.3,32.2,N/A,,Clear,210,2012-10-02 15:15:00
10:35 AM,64.4,33.8,32,29.59,10.0,SW,23.0,33.4,N/A,,Clear,230,2012-10-02 15:35:00
10:55 AM,64.4,33.8,32,29.59,10.0,SW,26.5,34.5,N/A,,Clear,230,2012-10-02 15:55:00
11:15 AM,66.2,33.8,30,29.59,10.0,WSW,24.2,32.2,N/A,,Clear,240,2012-10-02 16:15:00
11:35 AM,66.2,35.6,32,29.60,10.0,West,28.8,34.5,N/A,,Clear,260,2012-10-02 16:35:00
11:55 AM,66.2,37.4,35,29.60,10.0,West,20.7,29.9,N/A,,Clear,280,2012-10-02 16:55:00
12:15 PM,68.0,37.4,33,29.61,10.0,West,19.6,29.9,N/A,,Clear,280,2012-10-02 17:15:00
12:35 PM,68.0,39.2,35,29.62,10.0,WNW,20.7,28.8,N/A,,Clear,290,2012-10-02 17:35:00
12:55 PM,68.0,39.2,35,29.63,10.0,WNW,20.7,29.9,N/A,,Clear,300,2012-10-02 17:55:00
1:15 PM,68.0,41.0,37,29.64,10.0,WNW,18.4,25.3,N/A,,Clear,300,2012-10-02 18:15:00
1:35 PM,68.0,41.0,37,29.64,10.0,WNW,16.1,25.3,N/A,,Clear,300,2012-10-02 18:35:00
1:55 PM,68.0,41.0,37,29.64,10.0,West,18.4,23.0,N/A,,Clear,280,2012-10-02 18:55:00
2:15 PM,68.0,41.0,37,29.64,10.0,WNW,15.0,25.3,N/A,,Clear,300,2012-10-02 19:15:00
2:35 PM,68.0,41.0,37,29.64,10.0,West,18.4,26.5,N/A,,Clear,270,2012-10-02 19:35:00
2:55 PM,69.8,39.2,33,29.64,10.0,West,20.7,25.3,N/A,,Clear,280,2012-10-02 19:55:00
3:15 PM,71.6,39.2,31,29.65,10.0,WNW,19.6,27.6,N/A,,Clear,290,2012-10-02 20:15:00
3:35 PM,71.6,39.2,31,29.65,10.0,West,17.3,26.5,N/A,,Clear,270,2012-10-02 20:35:00
3:55 PM,71.6,39.2,31,29.65,10.0,West,21.9,29.9,N/A,,Clear,280,2012-10-02 20:55:00
4:15 PM,71.6,39.2,31,29.66,10.0,WNW,18.4,21.9,N/A,,Clear,300,2012-10-02 21:15:00
4:35 PM,71.6,39.2,31,29.66,10.0,West,23.0,28.8,N/A,,Clear,280,2012-10-02 21:35:00
4:55 PM,69.8,39.2,33,29.67,10.0,WNW,18.4,28.8,N/A,,Clear,290,2012-10-02 21:55:00
5:15 PM,69.8,39.2,33,29.68,10.0,WNW,17.3,27.6,N/A,,Clear,300,2012-10-02 22:15:00
5:35 PM,68.0,39.2,35,29.70,10.0,WNW,19.6,26.5,N/A,,Clear,290,2012-10-02 22:35:00
5:55 PM,68.0,39.2,35,29.71,10.0,WNW,19.6,27.6,N/A,,Clear,290,2012-10-02 22:55:00
6:15 PM,66.2,39.2,37,29.72,10.0,WNW,13.8,-,N/A,,Clear,300,2012-10-02 23:15:00
6:35 PM,64.4,39.2,40,29.73,10.0,NW,13.8,-,N/A,,Clear,310,2012-10-02 23:35:00
7:15 PM,60.8,39.2,45,29.74,10.0,West,10.4,-,N/A,,Clear,280,2012-10-03 00:15:00
7:35 PM,57.2,39.2,51,29.74,9.0,WNW,8.1,-,N/A,,Clear,290,2012-10-03 00:35:00
7:55 PM,55.4,39.2,54,29.75,10.0,WNW,9.2,-,N/A,,Clear,290,2012-10-03 00:55:00
8:15 PM,53.6,39.2,58,29.75,9.0,West,6.9,-,N/A,,Clear,280,2012-10-03 01:15:00
8:35 PM,50.0,39.2,66,29.75,10.0,West,8.1,-,N/A,,Clear,280,2012-10-03 01:35:00
8:55 PM,48.2,37.4,66,29.77,10.0,West,8.1,-,N/A,,Clear,270,2012-10-03 01:55:00
9:15 PM,48.2,37.4,66,29.78,10.0,West,8.1,-,N/A,,Clear,270,2012-10-03 02:15:00
9:35 PM,48.2,37.4,66,29.78,10.0,West,6.9,-,N/A,,Clear,260,2012-10-03 02:35:00
9:55 PM,46.4,37.4,71,29.79,10.0,West,6.9,-,N/A,,Clear,260,2012-10-03 02:55:00
10:15 PM,46.4,37.4,71,29.80,10.0,WSW,8.1,-,N/A,,Clear,250,2012-10-03 03:15:00
10:35 PM,46.4,37.4,71,29.80,10.0,WSW,5.8,-,N/A,,Clear,240,2012-10-03 03:35:00
10:55 PM,44.6,35.6,71,29.80,10.0,West,8.1,-,N/A,,Clear,270,2012-10-03 03:55:00
11:15 PM,42.8,37.4,81,29.80,10.0,West,8.1,-,N/A,,Clear,270,2012-10-03 04:15:00
11:35 PM,41.0,35.6,81,29.80,10.0,West,8.1,-,N/A,,Clear,280,2012-10-03 04:35:00
11:55 PM,42.8,37.4,81,29.81,10.0,West,9.2,-,N/A,,Clear,270,2012-10-03 04:55:00